Location: El Limón
(10.3059°N, 67.6321°W)
Time: 13:13:08
(UTC+00:00)

Cosmos 2266 Rocket - Pass Details

Date: 14 April 2024
Orbit: 935 x 1006 km, 82.9° (Epoch: 30 May)

Event Time Altitude Azimuth Distance (km) Brightness Sun altitude
Exits shadow 08:34:37 37° 189° (S) 1,459 4.7 -26.2°
Maximum altitude 08:37:17 83° 273° (W) 967 3.8 -25.5°
Drops below altitude 10° 08:43:22 10° 1° (N) 2,661 6.5 -24.1°
Sets 08:45:50 0° 2° (N) 3,598 7.2 -23.5°
